Location: Csohesd
(46.2500°N, 22.6167°E)
Time: 09:44:33
(UTC+00:00)

Envisat - Visible Passes

Search period start: 04 December 2022 00:00
Search period end: 14 December 2022 00:00
Orbit: 763 x 765 km, 98.2° (Epoch: 03 December)

Date Brightness Start Highest point End Pass type
(mag) Time Alt. Az. Time Alt. Az. Time Alt. Az.
04 Dec 5.6 02:05:05 10° NNE 02:05:37 13° NE 02:05:37 13° NE visible
04 Dec 4.6 03:44:08 10° N 03:45:48 19° NNW 03:45:48 19° NNW visible
05 Dec 4.9 03:06:48 10° N 03:08:12 19° N 03:08:12 19° N visible
06 Dec 5.4 02:29:51 10° NNE 02:30:37 14° NNE 02:30:37 14° NNE visible
06 Dec 4.8 04:09:40 10° NNW 04:10:48 15° NNW 04:10:48 15° NNW visible
06 Dec 6.2 15:30:02 10° WSW 15:31:35 11° W 15:33:09 10° WNW visible
07 Dec 4.9 03:32:02 10° N 03:33:14 17° N 03:33:14 17° N visible
08 Dec 5.2 02:54:49 10° NNE 02:55:39 15° NNE 02:55:39 15° NNE visible
08 Dec 5.0 04:35:40 10° NNW 04:35:50 10° NNW 04:35:50 10° NNW visible
09 Dec 5.7 02:17:59 10° NNE 02:18:05 11° NNE 02:18:05 11° NNE visible
09 Dec 5.0 03:57:27 10° N 03:58:16 14° NNW 03:58:16 14° NNW visible
09 Dec 5.9 15:16:41 10° WSW 15:19:28 15° W 15:22:16 10° NW visible
10 Dec 5.1 03:19:57 10° N 03:20:43 14° N 03:20:43 14° N visible
11 Dec 5.5 02:42:52 10° NNE 02:43:10 12° NNE 02:43:10 12° NNE visible
11 Dec 5.1 04:23:11 10° NNW 04:23:21 11° NNW 04:23:21 11° NNW visible
12 Dec 5.1 03:45:17 10° N 03:45:48 13° N 03:45:48 13° N visible
13 Dec 5.4 03:07:55 10° N 03:08:16 12° N 03:08:16 12° N visible
